Simultaneous Nadir Overpasses (SNOs) Predictions

Prediction of SNOs between LANDSAT-8 and METOP-B Satellite Orbit:

Table of predicted SNOs for the next 14.0 days since TLE Epoch: 1/28/2024
Index Date (LANDSAT-8) Time (LANDSAT-8) Lat,Lon (LANDSAT-8) SZA (LANDSAT-8 ) Date (METOP-B) Time (METOP-B) Lat,Lon (METOP-B) SZA (METOP-B ) Distance(km) Time Diff (sec)
1 01/29/2024 20:36:15 -81.27, 93.11 79.01 01/29/2024 20:35:56 -81.28, 93.00 79.03 1.83 19
2 01/29/2024 21:25:40 81.30, -98.78 101.05 01/29/2024 21:26:34 81.30, -98.62 101.09 2.82 54
3 02/01/2024 16:10:31 -81.28, 159.58 79.79 02/01/2024 16:10:22 -81.28, 159.64 79.79 1.23 9
4 02/01/2024 16:59:56 81.30, -32.34 100.26 02/01/2024 17:01:01 81.30, -32.41 100.28 1.22 65
5 02/04/2024 10:55:21 81.27, 58.18 99.37 02/04/2024 10:54:10 81.27, 58.00 99.33 3.08 71
6 02/04/2024 11:44:47 -81.29,-133.80 80.59 02/04/2024 11:44:49 -81.29,-133.82 80.59 0.32 2
7 02/07/2024 06:29:36 81.28, 124.92 98.56 02/07/2024 06:28:36 81.28, 124.80 98.52 2.17 60
8 02/07/2024 07:19:03 -81.28, -67.42 81.46 02/07/2024 07:19:16 -81.29, -67.38 81.44 0.97 13
9 02/10/2024 02:03:50 81.29,-168.57 97.68 02/10/2024 02:03:01 81.29,-168.49 97.66 1.29 49



Historial Predications of SNOs between LANDSAT-8 and METOP-B
